COSMOS 1275 DEB, 14409

Orbit data source: Space-Track

COSMOS 1275 DEB, 14409 is space debris in LEO originally from a launch on Thu, 04 Jun 1981 UTC launched from the Plesetsk Missile And Space Complex (PKMTR). Debris objects in space refer to the collection of defunct objects orbiting the Earth. Examples of debris include non-operational satellites, rocket bodies, and fragments generated from explosions, collisions, or faulty payload assembly.

Loading next visibility...
Identifier
14409, 1981-053JE
Orbit
LEO
Country
Flag of CISCIS
Related business
Manufacturer
Unknown
Mission
Spacecraft
Bus & Motor
Unknown
Mass
Unknown
Launch date (UTC)
1981-06-04 (45 years ago)
Launch vehicle
Unknown
Launch site
Plesetsk Missile And Space Complex (PKMTR)
Object type
Payload
Rocket body
Debris
Shape & HBR
Unknown shape, 0.1 m
Radar Cross Section
Medium (>0.1 m² and <1 m²)

Expand to show TLE details & history
Last TLE update: 2 days ago

TLE from 2 days ago
0 COSMOS 1275 DEB
1 14409U 81053JE  26171.41044968  .00000797  00000-0  82194-3 0  9998
2 14409  83.0285 333.2343 0122112 137.4223 251.6110 13.71586739297732
Epoch: 2026-06-20T09:51Z
TLE epoch observation values (Epoch: 2026-06-20T09:51:02.852Z)
Latitude
27.52845°
Longitude
-79.51789°
Altitude
1,026.635 km
Speed
7.326 km/s
True Right ascension
22h 27m 28s
True Declination
27° 23' 34"
Sunlit
Object was in daylight at epoch
Visualization orbit readout
Latitude
Unknown
Longitude
Unknown
Altitude
Unknown
Speed
Unknown
Apparent Right ascension
Unknown
Apparent Declination
Unknown
Sunlit
N/A
Visualization observer readout
Local Sidereal Time
23:20:13
Azimuth
Unknown
Elevation
Unknown
Doppler factor
Unknown
Orbital elements
Apogee altitude
1,081.016 km
Perigee altitude
901.043 km
Semi-major axis
7,369.167 km
Eccentricity
0.01221
Inclination
83.0285°
RAAN
333.2343°
Arg. of periapsis
137.4223°
True anomaly
250.28963°
Mean anomaly
251.611°
Eccentric anomaly
250.94967°
Mean motion
3.43096 °/min
Orbital period
104.93 mins
BSTAR
0.00082194
Loading maneuver chart data...
Computing Atmospheric mass density...

Documentation

Showing up to 5 results
|